Location: Pine Mountain Observatory
(43.7910°N, 120.9377°W)
Time: 12:47:32
(UTC-07:00)

APEX - Visible Passes

Search period start: 31 August 2015 00:00
Search period end: 10 September 2015 00:00
Orbit: 339 x 1297 km, 69.9° (Epoch: 30 August)

Date Brightness Start Highest point End Pass type
(mag) Time Alt. Az. Time Alt. Az. Time Alt. Az.
04 Sep 6.5 05:36:25 10° NNE 05:38:31 14° NE 05:41:04 10° E visible
05 Sep 6.7 05:14:31 10° NNE 05:16:04 12° NE 05:17:56 10° ENE visible
06 Sep 7.0 04:53:12 10° NE 04:53:34 10° NE 04:54:09 10° ENE visible
06 Sep 4.2 21:24:45 10° SW 21:30:33 - NNE 21:26:13 25° SW visible
07 Sep 2.4 21:02:17 10° SSW 21:05:11 82° WNW 21:07:56 10° NNE visible
08 Sep 4.5 05:48:36 10° NNW 05:52:35 57° ENE 05:57:50 10° SE visible
08 Sep 2.2 20:39:51 10° SSW 20:42:44 70° ESE 20:45:28 10° NNE visible
09 Sep 4.9 05:26:11 10° NNW 05:30:08 46° ENE 05:35:16 10° SE visible
09 Sep 2.5 20:17:27 10° S 20:20:15 48° ESE 20:22:55 10° NE visible
